[[{"header":{"parameterUnit":"m.s-1","parameterCategory":1,"la1":30.2991,"la2":30.254,"lo1":-89.0895,"lo2":-89.0444,"dy":0.0017,"dx":0.0017,"nx":28,"ny":28,"refTime":"2024-07-18T21:00:00:Z","depth":0,"parameterNumber":2,"parameterNumberName":"U-component_of_WINDS"},"data":[0,0,0,0,0,0,0,0,0,0,0,0,0,0,0,0,0,0,0,0,0,0,0,0,0,0,0,0,0,0,0,0,0,0,0,0,0,0,0,0,0,0,0,0,0,0,0,0,0,0,0,0,0,0,0,0,0,0,1.9196,1.9196,0,1.9278,1.9279,1.928,1.925,1.9249,1.9247,1.9245,1.9328,1.9332,1.9335,0,0,0,0,0,0,0,0,0,0,0,0,0,1.9011,1.9014,1.9195,1.9197,1.9198,1.9278,1.9279,1.928,1.9251,1.9248,1.9246,1.9244,1.9327,1.9331,1.9336,0,0,0,0,0,0,0,0,0,0,0,0,0,1.9092,1.9015,1.9195,1.9193,1.9193,1.9277,1.9279,1.928,1.9251,1.9248,1.9246,1.9243,1.9325,1.9331,1.9336,1.9428,0,0,1.9354,1.9357,0,0,0,0,0,0,0,0,1.9087,1.9099,1.9192,1.9193,1.9194,1.9251,1.9244,1.933,1.9252,1.9229,1.9245,1.9242,1.9304,1.9312,1.9333,1.9432,1.9435,1.9355,1.9358,1.9361,1.9363,0,0,0,0,0,0,0,1.9082,1.9095,1.9228,1.9193,1.9195,1.9187,1.9195,1.926,1.9281,1.9231,1.9229,1.9239,1.9304,1.9328,1.9335,1.9436,1.9355,1.936,1.9364,1.9366,1.9611,1.9614,0,0,0,0,0,0,1.9076,1.909,1.9225,1.923,1.9133,1.9192,1.9202,1.9235,1.928,1.9285,1.9241,1.9238,1.9319,1.9328,1.9338,1.9446,1.9361,1.9366,1.937,1.9608,1.9612,1.9615,0,0,0,0,0,0,1.9072,1.9088,1.9222,1.916,1.9176,1.9198,1.9236,1.9239,1.9262,1.9288,1.9292,1.9262,1.9317,1.9329,1.9405,1.9448,1.9369,1.9374,1.9605,1.961,1.9614,1.9664,0,0,0,0,0,0,1.9067,1.9087,1.9123,1.9161,1.918,1.9289,1.9239,1.9242,1.9272,1.9268,1.9308,1.9312,1.9316,1.9397,1.9411,1.9455,1.9379,1.9601,1.9607,1.9612,1.9658,1.967,1.9679,0,0,0,0,0,1.906,1.9134,1.9125,1.9141,1.9225,1.9292,1.9302,1.9306,1.9276,1.9311,1.9328,1.9311,1.9442,1.9405,1.9421,1.9467,1.9598,1.9605,1.9612,1.9654,1.9667,1.9679,0,0,0,0,0,0,1.91,1.9139,1.9129,1.9217,1.9251,1.9287,1.9331,1.932,1.9363,1.9357,1.9359,1.9369,1.9446,1.9464,1.9422,1.9557,1.9515,1.9526,1.9542,1.9555,1.9565,1.9558,1.9384,0,0,0,0,0,1.9119,1.917,1.9201,1.9276,1.9293,1.931,1.9339,1.9338,1.9374,1.9388,1.941,1.9445,1.9493,1.9525,1.9572,1.9661,1.9669,1.9701,1.9711,1.972,1.9728,1.9775,1.9789,1.9638,1.9637,1.9637,0,0,1.9158,1.9186,1.9218,1.9284,1.9311,1.9363,1.9322,1.9379,1.9418,1.9396,1.9469,1.9487,1.9525,1.9607,1.9645,1.9625,1.9772,1.9728,1.9735,1.9739,1.9783,1.9798,1.981,1.9642,1.9641,1.9641,0,0,1.9256,1.9284,1.9347,1.9375,1.9415,1.9425,1.944,1.9478,1.9488,1.9561,1.9546,1.9591,1.9676,1.9703,1.9728,1.9835,1.9821,1.9851,1.9904,1.9949,1.9961,1.9972,2.0009,2.0022,1.9859,1.9859,1.9859,0,1.93,1.9379,1.9382,1.944,1.9469,1.9452,1.9516,1.9542,1.9596,1.9616,1.9593,1.9697,1.9722,1.981,1.9836,1.9857,1.9874,1.9845,1.996,1.997,1.998,2.0015,2.0029,1.9862,1.9862,1.9862,1.9861,0,1.943,1.9485,1.9531,1.9583,1.9617,1.9678,1.9689,1.9723,1.972,1.9732,1.9805,1.9835,1.9886,1.9907,1.9904,1.9994,1.998,1.9959,1.9917,1.9998,2.003,2.0044,1.9867,1.9866,1.9865,1.9864,0,0,1.9555,1.9607,1.9624,1.9646,1.9689,1.9731,1.9791,1.9841,1.9869,1.9907,1.9956,2.0027,2.0007,2.0035,2.0035,2.0076,2.0157,2.0049,2.005,2.0067,2.0256,2.0271,2.0286,2.0148,2.015,2.0153,2.0252,0,1.9656,1.9761,1.9764,1.9859,1.9909,1.9893,1.9945,1.9976,1.9989,2.0032,2.0046,2.0096,2.0067,2.0083,2.0123,2.0139,2.0195,2.0132,2.0192,2.0194,2.0182,2.0304,2.032,2.0412,2.0265,2.0267,2.0269,0,1.9787,1.9828,1.9928,1.9962,1.9983,2.003,2.0075,2.0117,2.0152,2.0158,2.0189,2.0183,2.0243,2.02,2.0282,2.0239,2.0264,2.0276,2.0279,2.0284,2.0235,2.031,2.0442,2.0455,2.0289,2.0288,2.0286,0,1.9866,1.9946,2.0016,2.0036,2.0078,2.0111,2.013,2.0162,2.0191,2.0231,2.025,2.0296,2.0321,2.0356,2.0362,2.0331,2.0444,2.0402,2.045,2.0449,2.0473,2.0471,2.0609,2.0492,2.0491,2.0491,2.0491,0,1.9977,2.0038,2.0052,2.0095,2.0162,2.0166,2.0233,2.0249,2.0278,2.0323,2.0312,2.0355,2.0361,2.0405,2.041,2.0476,2.0487,2.0493,2.0494,2.0493,2.0492,2.0509,2.0502,2.0495,2.0494,2.0493,2.0493,0,2.0076,2.0088,2.0163,2.0196,2.0206,2.0254,2.0283,2.0323,2.0334,2.0391,2.0405,2.0423,2.0474,2.0484,2.0544,2.0547,2.0625,2.062,2.0613,2.0612,2.0659,2.0654,2.0811,2.0831,2.0702,2.0703,2.0704,0,2.0145,2.0192,2.023,2.026,2.028,2.0328,2.0357,2.0362,2.0393,2.0436,2.0471,2.0521,2.056,2.0642,2.066,2.0706,2.07,2.0753,2.0707,2.0705,2.0699,2.0696,2.07,2.0761,2.0762,2.0763,2.0764,0,2.0266,2.0269,2.0313,2.0358,2.0393,2.0429,2.0463,2.0488,2.0497,2.0533,2.0584,2.0615,2.0676,2.0725,2.077,2.0789,2.0778,2.0778,2.0792,2.0791,2.0785,2.0787,2.0635,2.0775,2.0774,2.0773,2.0772,2.0772,2.0352,2.0392,2.0424,2.0472,2.0498,2.053,2.0569,2.0585,2.0629,2.0678,2.0679,2.0735,2.0767,2.0827,2.0849,2.0892,2.0876,2.0895,2.09,2.0904,2.0908,2.0779,2.0901,2.09,2.09,2.09,2.09,0,2.047,2.049,2.0535,2.0582,2.062,2.0606,2.0643,2.0675,2.0725,2.0756,2.0795,2.0854,2.0901,2.0923,2.0969,2.1,2.0995,2.1011,2.1008,2.1013,2.0921,2.0904,2.1014,2.1014,2.1014,2.1014,2.1014,2.1014,2.0537,2.0603,2.061,2.0689,2.0708,2.0763,2.0785,2.0814,2.0839,2.0905,2.0944,2.0957,2.0985,2.1033,2.1075,2.108,2.1097,2.1115,2.1118,2.1031,2.1019,2.1008,2.0992,2.1119,2.1119,2.1206,2.1207,2.1207]},{"header":{"parameterUnit":"m.s-1","parameterCategory":1,"la1":30.2991,"la2":30.254,"lo1":-89.0895,"lo2":-89.0444,"dy":0.0017,"dx":0.0017,"nx":28,"ny":28,"refTime":"2024-07-18T21:00:00:Z","depth":0,"parameterNumber":3,"parameterNumberName":"V-component_of_WINDS"},"data":[0,0,0,0,0,0,0,0,0,0,0,0,0,0,0,0,0,0,0,0,0,0,0,0,0,0,0,0,0,0,0,0,0,0,0,0,0,0,0,0,0,0,0,0,0,0,0,0,0,0,0,0,0,0,0,0,0,0,2.6841,2.6842,0,2.6877,2.6878,2.6878,2.683,2.6828,2.6827,2.6825,2.6859,2.6862,2.6864,0,0,0,0,0,0,0,0,0,0,0,0,0,2.6727,2.6729,2.6841,2.6842,2.6842,2.6877,2.6878,2.6878,2.683,2.6828,2.6826,2.6824,2.6859,2.6862,2.6865,0,0,0,0,0,0,0,0,0,0,0,0,0,2.6771,2.673,2.6841,2.6823,2.6821,2.6877,2.6878,2.6878,2.6831,2.6828,2.6826,2.6823,2.6858,2.6861,2.6865,2.694,0,0,2.6877,2.6878,0,0,0,0,0,0,0,0,2.6769,2.6775,2.6825,2.6824,2.6823,2.6847,2.685,2.6899,2.6831,2.6827,2.6825,2.6822,2.6857,2.6861,2.6873,2.6941,2.6943,2.6877,2.6879,2.6881,2.6882,0,0,0,0,0,0,0,2.6766,2.6773,2.6855,2.6826,2.6824,2.6811,2.6814,2.6859,2.6856,2.6827,2.6824,2.6829,2.6856,2.687,2.6873,2.6943,2.6877,2.688,2.6882,2.6884,2.7072,2.7075,0,0,0,0,0,0,2.6765,2.6771,2.6854,2.6856,2.6789,2.6815,2.6819,2.6841,2.6855,2.6855,2.6831,2.6827,2.6864,2.6869,2.6875,2.6962,2.6881,2.6884,2.6886,2.707,2.7073,2.7076,0,0,0,0,0,0,2.6763,2.6773,2.6853,2.6813,2.6822,2.682,2.6845,2.6843,2.6857,2.6858,2.6857,2.6846,2.6862,2.6869,2.6924,2.6962,2.6886,2.6889,2.7066,2.7071,2.7074,2.7137,0,0,0,0,0,0,2.676,2.6773,2.6802,2.6814,2.6824,2.6903,2.6848,2.6846,2.6864,2.6858,2.6872,2.6872,2.6861,2.6918,2.6927,2.6966,2.6892,2.7063,2.7068,2.7073,2.7132,2.7143,2.7153,0,0,0,0,0,2.6756,2.6818,2.6804,2.6814,2.6862,2.6905,2.6911,2.6898,2.6867,2.6896,2.6896,2.6871,2.6956,2.6924,2.6934,2.6974,2.706,2.7067,2.7073,2.7127,2.7141,2.7153,0,0,0,0,0,0,2.6811,2.682,2.6804,2.6872,2.6888,2.6897,2.6933,2.6913,2.6938,2.6932,2.6914,2.6917,2.6975,2.698,2.6944,2.7046,2.7003,2.7012,2.7041,2.7054,2.7064,2.7062,2.6895,0,0,0,0,0,2.6831,2.6867,2.6872,2.6932,2.6941,2.6936,2.6954,2.6943,2.6958,2.6965,2.6969,2.6984,2.7014,2.7034,2.7062,2.7132,2.7133,2.7164,2.7175,2.7184,2.7191,2.7226,2.724,2.7096,2.7096,2.7096,0,0,2.6873,2.6882,2.6906,2.6943,2.6954,2.699,2.6942,2.6982,2.7008,2.697,2.7022,2.7026,2.7041,2.7103,2.7131,2.7109,2.7231,2.7191,2.7198,2.7201,2.7234,2.7248,2.726,2.71,2.71,2.7099,0,0,2.6968,2.6979,2.7029,2.7041,2.7058,2.7054,2.7066,2.7077,2.7078,2.713,2.7102,2.7132,2.7184,2.7196,2.7209,2.7305,2.7282,2.7315,2.737,2.7405,2.7416,2.7426,2.7459,2.7472,2.7322,2.7322,2.7323,0,2.7017,2.7072,2.7057,2.7099,2.7115,2.7083,2.7132,2.7144,2.717,2.7181,2.7157,2.7221,2.7229,2.7292,2.7316,2.7328,2.734,2.7313,2.7416,2.7425,2.7434,2.7466,2.7479,2.7326,2.7326,2.7325,2.7325,0,2.7131,2.7169,2.7207,2.7232,2.7253,2.7298,2.7289,2.7311,2.7298,2.7296,2.7347,2.7356,2.7384,2.7398,2.7385,2.7459,2.7445,2.7419,2.7375,2.7452,2.7481,2.7494,2.7332,2.733,2.7329,2.7328,0,0,2.7263,2.7278,2.7292,2.7303,2.7318,2.7347,2.7389,2.7417,2.7436,2.7454,2.7489,2.7533,2.7508,2.7522,2.751,2.7541,2.7615,2.751,2.751,2.7529,2.7696,2.7716,2.773,2.76,2.7602,2.7604,2.7694,0,2.7356,2.7432,2.7419,2.7492,2.7525,2.7494,2.7531,2.7544,2.7543,2.757,2.7567,2.7599,2.7564,2.7572,2.7601,2.76,2.7648,2.7593,2.7631,2.7633,2.7628,2.7746,2.7767,2.7852,2.7706,2.7708,2.7709,0,2.7477,2.7499,2.7575,2.7583,2.7597,2.7631,2.7654,2.7681,2.7694,2.7691,2.7706,2.7688,2.7729,2.7685,2.774,2.7703,2.7717,2.7719,2.7722,2.7725,2.7676,2.7751,2.7879,2.7892,2.7727,2.7726,2.7724,0,2.7564,2.7613,2.7664,2.7674,2.7685,2.771,2.7715,2.7726,2.7743,2.7763,2.7773,2.7798,2.7811,2.783,2.7818,2.7787,2.7875,2.783,2.7873,2.7873,2.7893,2.7892,2.8024,2.7903,2.7903,2.7902,2.7902,0,2.767,2.7717,2.7703,2.7735,2.7786,2.777,2.7821,2.7823,2.7832,2.7862,2.7836,2.7865,2.7848,2.7875,2.7865,2.7912,2.7919,2.7916,2.7913,2.7919,2.7919,2.7928,2.7921,2.7906,2.7905,2.7904,2.7904,0,2.7776,2.7769,2.7822,2.7828,2.7831,2.7869,2.7873,2.7902,2.7898,2.7936,2.7944,2.7938,2.7968,2.7958,2.799,2.7984,2.8043,2.8033,2.8039,2.8037,2.808,2.8076,2.8222,2.824,2.8107,2.8109,2.811,0,2.7844,2.788,2.7889,2.7908,2.7916,2.7946,2.7963,2.7947,2.7966,2.7982,2.8009,2.8036,2.8058,2.8108,2.8105,2.813,2.8119,2.8169,2.8123,2.8126,2.8119,2.8117,2.812,2.8178,2.818,2.8181,2.8182,0,2.7966,2.7959,2.7985,2.8009,2.803,2.8048,2.8064,2.808,2.8065,2.8087,2.8118,2.8135,2.8167,2.8195,2.8216,2.8221,2.8199,2.8196,2.8207,2.8213,2.8215,2.8214,2.8064,2.8193,2.8192,2.8191,2.8191,2.819,2.8054,2.8084,2.8095,2.8124,2.8134,2.8149,2.8175,2.8174,2.82,2.8225,2.8214,2.8249,2.8259,2.8286,2.8293,2.832,2.83,2.8317,2.8321,2.8325,2.833,2.8211,2.8324,2.8323,2.8323,2.8323,2.8322,0,2.8174,2.8179,2.8205,2.8228,2.825,2.8227,2.8243,2.8263,2.8294,2.8306,2.8327,2.8361,2.8388,2.8387,2.8411,2.8432,2.8422,2.8439,2.8437,2.8438,2.8346,2.8334,2.8446,2.8446,2.8446,2.8446,2.8446,2.8446,2.8238,2.8287,2.8282,2.8334,2.8339,2.8373,2.8384,2.8397,2.8405,2.8445,2.8467,2.8466,2.8472,2.8496,2.8519,2.8518,2.8528,2.8548,2.8543,2.8457,2.8445,2.8433,2.8422,2.855,2.855,2.8633,2.8633,2.8634]}]]